Location: Deneb Observatory
(47.2267°N, 100.4953°W)
Time: 02:44:00
(UTC-05:00)

Amateur Radio Satellites - All Passes

Search period start: 31 May 2016 02:14
Search period end: 01 June 2016 02:14
Location: Deneb Observatory, 47.2267°N, 100.4953°W

Satellite Date Start Highest point End Downlink Frequencies (MHz)
Time Altitude Azimuth
SWISSCUBE 31 May 02:17:49 02:22:11 37° 67° (ENE) 02:26:34 437.505
DUCHIFAT 1 31 May 02:21:29 02:25:04 28° 294° (WNW) 02:28:38 145.980
BUGSAT 1 31 May 02:23:35 02:27:31 50° 289° (WNW) 02:31:24 437.445
DANDE 31 May 02:23:57 02:26:54 12° 289° (WNW) 02:29:45 436.750
ITUPSAT 1 31 May 02:25:58 02:30:24 40° 67° (ENE) 02:34:51 437.325
ISS 31 May 02:34:56 02:38:13 87° 27° (NNE) 02:41:29 145.825
BEESAT 31 May 02:46:41 02:51:22 62° 72° (ENE) 02:56:06 436.000
YUBILEINY 31 May 02:47:24 02:55:13 34° 66° (ENE) 03:03:00 435.215
Oscar 19 31 May 02:52:31 02:57:30 46° 99° (E) 03:02:24 437.125/150
JAS-2 31 May 03:00:41 03:08:11 83° 288° (WNW) 03:14:49 435.910
TISAT 1 31 May 03:02:22 03:05:26 19° 268° (W) 03:08:31 437.305
POPSAT HIP 1 31 May 03:06:02 03:07:15 11° 303° (WNW) 03:08:27 437.405
QB50P1 31 May 03:06:08 03:07:16 11° 303° (WNW) 03:08:23 145.935-145.965
Cosmos 2504 31 May 03:21:31 03:27:02 18° 56° (NE) 03:32:42 435.465 / 435.565
MOZHAYETS 4 31 May 03:25:54 03:28:53 18° 61° (ENE) 03:31:55
ITAMSAT 1 31 May 03:42:52 03:47:03 24° 93° (E) 03:51:12 435.822/435.867
Gurwin Techsat 1B 31 May 03:45:31 03:50:48 60° 101° (ESE) 03:56:03 435.225
SO-50 31 May 03:45:37 03:48:12 14° 339° (NNW) 03:50:46 436.795
Cosmos 2491 31 May 03:48:33 03:56:07 34° 83° (E) 04:03:40 435.465 / 435.565
SWISSCUBE 31 May 03:55:57 04:00:03 28° 265° (W) 04:04:11 437.505
ITUPSAT 1 31 May 04:04:20 04:08:21 27° 266° (W) 04:12:25 437.325
ISS 31 May 04:12:02 04:14:18 18° 223° (SW) 04:16:34 145.825
RS-15 31 May 04:15:57 04:27:01 42° 252° (WSW) 04:38:05 29.354- 29.394
KKS-1 31 May 04:17:40 04:22:06 67° 73° (ENE) 04:26:33 437.445
AO-7 31 May 04:23:13 04:30:01 27° 92° (E) 04:36:45 29.400- 29.500
BEESAT 31 May 04:26:29 04:29:35 17° 270° (W) 04:32:43 436.000
Oscar 19 31 May 04:32:18 04:36:36 27° 298° (WNW) 04:40:52 437.125/150
STARS 31 May 04:42:54 04:47:15 64° 73° (ENE) 04:51:38 437.465
YUBILEINY 31 May 04:44:00 04:52:35 63° 268° (W) 05:01:13 435.215
JAS-2 31 May 04:46:50 04:52:02 21° 309° (NW) 04:56:56 435.910
MOZHAYETS 4 31 May 05:01:04 05:05:36 63° 259° (W) 05:10:10
CUBESAT XI-V 31 May 05:01:14 05:04:38 20° 62° (ENE) 05:08:03 437.345
Cosmos 2504 31 May 05:13:34 05:22:02 72° 78° (ENE) 05:30:53 435.465 / 435.565
ITAMSAT 1 31 May 05:21:44 05:26:49 52° 291° (WNW) 05:31:52 435.822/435.867
Gurwin Techsat 1B 31 May 05:26:15 05:30:21 23° 300° (WNW) 05:34:26 435.225
HORYU 2 31 May 05:33:04 05:36:02 17° 91° (E) 05:38:59 437.375
Cosmos 2491 31 May 05:43:42 05:52:26 63° 284° (WNW) 06:01:12 435.465 / 435.565
AO-85 31 May 05:47:51 05:52:43 34° 116° (ESE) 05:57:29 145.980
KKS-1 31 May 05:56:42 05:59:09 14° 271° (W) 06:01:35 437.445
AO-7 31 May 06:15:13 06:23:36 78° 292° (WNW) 06:31:57 29.400- 29.500
STRAND 1 31 May 06:18:01 06:20:25 13° 54° (NE) 06:22:49 437.568
STARS 31 May 06:21:36 06:24:03 15° 270° (W) 06:26:32 437.465
NOAA 15 31 May 06:23:14 06:25:28 13° 87° (E) 06:27:41 137.62
CUBESAT XI-V 31 May 06:37:01 06:41:37 56° 260° (W) 06:46:17 437.345
Cubesat XI-IV 31 May 06:42:01 06:44:32 13° 87° (E) 06:47:03 437.490
YUBILEINY 31 May 06:43:57 06:47:30 13° 290° (WNW) 06:51:04 435.215
Cosmos 2504 31 May 07:07:50 07:14:46 29° 278° (W) 07:21:56 435.465 / 435.565
HORYU 2 31 May 07:08:35 07:12:56 55° 289° (WNW) 07:17:16 437.375
SO-50 31 May 07:09:57 07:13:18 18° 29° (NNE) 07:16:34 436.795
NOAA 18 31 May 07:11:03 07:15:44 28° 95° (E) 07:20:24 137.9125
BRITE-PL 31 May 07:23:48 07:28:26 35° 94° (E) 07:32:43 437.365/2234.400
CUTE-I 31 May 07:25:22 07:30:08 32° 95° (E) 07:34:53 437.470
AO-85 31 May 07:27:51 07:33:08 49° 314° (NW) 07:38:14 145.980
GOMX 1 31 May 07:28:51 07:31:59 18° 89° (E) 07:35:00 467.674
AIST 1 31 May 07:40:40 07:43:34 17° 67° (ENE) 07:46:25
Cosmos 2499 31 May 07:45:02 07:48:59 14° 49° (NE) 07:52:59 435.465 / 435.565
Cosmos 2491 31 May 07:46:31 07:51:27 16° 309° (NW) 07:56:25 435.465 / 435.565
LilacSat-2 31 May 07:46:59 07:50:39 45° 99° (E) 07:54:17 437.200
STRAND 1 31 May 07:53:40 07:58:46 79° 73° (ENE) 08:03:55 437.568
DOVE 4 31 May 07:57:46 08:00:25 16° 89° (E) 08:02:59 437.250
NOAA 15 31 May 08:00:42 08:06:03 86° 104° (ESE) 08:11:20 137.62
PRISM 31 May 08:05:40 08:08:43 20° 63° (ENE) 08:11:46 437.425
AO-7 31 May 08:09:06 08:15:10 23° 314° (NW) 08:21:15 29.400- 29.500
Cubesat XI-IV 31 May 08:19:59 08:25:23 88° 113° (ESE) 08:30:46 437.490
CANX-2 31 May 08:26:46 08:27:30 10° 87° (E) 08:28:14 2200.000
PCSat 31 May 08:33:27 08:34:17 10° 101° (E) 08:35:08 145.827
GONETS M04 31 May 08:38:25 08:46:28 39° 68° (ENE) 08:54:27
SO-50 31 May 08:49:52 08:54:38 73° 50° (NE) 08:59:12 436.795
NOAA 18 31 May 08:51:21 08:56:37 48° 293° (WNW) 09:01:51 137.9125
CUTE 1.7 + AOD 2 31 May 08:51:23 08:54:14 17° 90° (E) 08:57:04 437.475
COMPASS 1 31 May 08:59:37 09:00:33 11° 87° (E) 09:01:29 437.405
O/OREOS (USA 219) 31 May 09:01:00 09:04:13 19° 101° (ESE) 09:07:26 437.305
BRITE-PL 31 May 09:02:24 09:06:51 31° 295° (WNW) 09:10:59 437.365/2234.400
CUTE-I 31 May 09:05:16 09:10:16 41° 294° (WNW) 09:15:15 437.470
GOMX 1 31 May 09:05:59 09:10:31 52° 289° (WNW) 09:14:44 467.674
HO-68 31 May 09:08:13 09:14:39 34° 95° (E) 09:21:03 435.675
AO-85 31 May 09:11:30 09:14:48 16° 336° (NNW) 09:18:01 145.980
AIST 1 31 May 09:17:17 09:21:31 52° 266° (W) 09:25:42
LilacSat-2 31 May 09:22:11 09:24:39 17° 296° (WNW) 09:27:05 437.200
DOVE 4 31 May 09:34:18 09:38:34 53° 288° (WNW) 09:42:38 437.250
AUBIESAT-1 31 May 09:34:24 09:37:09 24° 102° (ESE) 09:39:54 437.475
CINEMA 3 31 May 09:34:47 09:38:49 47° 99° (E) 09:42:50 145.822/145.860
STRAND 1 31 May 09:35:42 09:38:34 15° 272° (W) 09:41:27 437.568
Cosmos 2499 31 May 09:35:57 09:44:23 54° 73° (ENE) 09:53:02 435.465 / 435.565
PRISM 31 May 09:39:44 09:43:44 45° 261° (W) 09:47:47 437.425
NOAA 15 31 May 09:41:51 09:45:09 17° 304° (NW) 09:48:25 137.62
M-CUBED/EXP-1 PRIME 31 May 09:44:32 09:47:37 38° 105° (ESE) 09:50:43 437.505
SEEDS 31 May 09:54:02 09:58:14 54° 100° (E) 10:02:24 437.485
CUBEBUG 2 31 May 09:56:50 10:00:25 27° 95° (E) 10:04:01 437.445
CANX-2 31 May 09:59:39 10:03:58 86° 281° (W) 10:08:16 2200.000
Cubesat XI-IV 31 May 10:01:29 10:04:45 17° 304° (NW) 10:08:01 437.490
FUNcube-1 31 May 10:09:39 10:12:27 17° 91° (E) 10:15:16 145.935
PCSat 31 May 10:11:16 10:16:39 68° 119° (ESE) 10:22:04 145.827
UWE-3 31 May 10:16:33 10:20:18 30° 96° (E) 10:24:04 435.000/436.395/437.385
UNISAT 6 31 May 10:18:34 10:22:14 28° 66° (ENE) 10:25:52 437.425
TIGRISAT 31 May 10:24:34 10:28:19 30° 67° (ENE) 10:32:02 435.000
CUTE 1.7 + AOD 2 31 May 10:26:12 10:30:23 52° 288° (WNW) 10:34:33 437.475
DELFI C3 31 May 10:27:50 10:30:09 15° 90° (E) 10:32:27 145.870
AAUSAT CUBESAT 2 31 May 10:30:49 10:35:03 79° 104° (ESE) 10:39:15 437.432
SO-50 31 May 10:31:34 10:34:32 17° 250° (WSW) 10:37:26 436.795
COMPASS 1 31 May 10:32:27 10:36:42 82° 284° (WNW) 10:40:55 437.405
GONETS M04 31 May 10:35:14 10:43:36 54° 270° (W) 10:51:56
O/OREOS (USA 219) 31 May 10:38:47 10:43:14 52° 300° (WNW) 10:47:42 437.305
HUMSAT D 31 May 10:43:55 10:44:26 10° 87° (E) 10:44:57 437.325/437.525
Oscar 11 31 May 10:46:39 10:50:52 48° 99° (E) 10:55:05 145.826/435.025
QB50P1 31 May 10:50:11 10:52:05 13° 59° (ENE) 10:53:59 145.935-145.965
POPSAT HIP 1 31 May 10:50:15 10:52:05 13° 59° (ENE) 10:53:57 437.405
QB50P2 31 May 10:53:31 10:55:49 15° 60° (ENE) 10:58:09 145.880/145.840
HO-68 31 May 10:55:42 11:02:40 55° 295° (WNW) 11:09:37 435.675
POLYITAN 1 31 May 10:55:58 10:58:19 15° 60° (ENE) 11:00:40 437.675
AO-85 31 May 10:56:43 10:57:27 10° 0° (N) 10:58:10 145.980
ANTELSAT 31 May 10:58:54 11:03:10 69° 74° (ENE) 11:07:26 437.575/2403.000
NANOSAT C BR1 31 May 11:05:13 11:07:56 17° 62° (ENE) 11:10:40 145.865
AUBIESAT-1 31 May 11:08:58 11:11:39 23° 299° (WNW) 11:14:19 437.475
ZACube-1 31 May 11:09:00 11:13:14 74° 102° (ESE) 11:17:30 437.345
CINEMA 3 31 May 11:12:47 11:15:40 18° 297° (WNW) 11:18:32 145.822/145.860
BEESAT 2 31 May 11:16:33 11:19:19 18° 113° (ESE) 11:22:06 435.950
M-CUBED/EXP-1 PRIME 31 May 11:20:00 11:21:58 15° 302° (WNW) 11:23:55 437.505
Cosmos 2499 31 May 11:29:27 11:37:20 41° 274° (W) 11:45:24 435.465 / 435.565
SEEDS 31 May 11:30:42 11:33:33 18° 298° (WNW) 11:36:23 437.485
JAS-2 31 May 11:32:40 11:37:35 19° 49° (NE) 11:42:34 435.910
CUBEBUG 2 31 May 11:33:22 11:37:04 31° 292° (WNW) 11:40:47 437.445
CUSAT 1 31 May 11:33:31 11:39:49 37° 86° (E) 11:46:56 437.405
CANX-2 31 May 11:37:52 11:39:07 11° 302° (WNW) 11:40:22 2200.000
DUCHIFAT 1 31 May 11:40:26 11:44:14 34° 68° (ENE) 11:48:02 145.980
BEESAT 3 31 May 11:41:42 11:45:33 54° 122° (ESE) 11:49:26 437.485
BUGSAT 1 31 May 11:42:01 11:44:55 19° 63° (ENE) 11:47:48 437.445
FUNcube-1 31 May 11:44:55 11:48:59 50° 288° (WNW) 11:53:07 145.935
UWE-3 31 May 11:53:08 11:56:42 28° 293° (WNW) 12:00:20 435.000/436.395/437.385
UNISAT 6 31 May 11:55:01 11:58:53 32° 264° (W) 12:02:45 437.425
PCSat 31 May 11:55:58 12:00:32 27° 320° (NW) 12:05:08 145.827
TIGRISAT 31 May 12:01:13 12:04:59 29° 264° (W) 12:08:45 435.000
DELFI C3 31 May 12:01:23 12:05:21 54° 288° (WNW) 12:09:18 145.870
DANDE 31 May 12:06:31 12:11:56 32° 83° (E) 12:18:28 436.750
AAUSAT CUBESAT 2 31 May 12:08:04 12:09:57 13° 301° (WNW) 12:11:50 437.432
COMPASS 1 31 May 12:10:48 12:11:32 10° 303° (WNW) 12:12:16 437.405
AISAT 31 May 12:11:00 12:12:50 12° 88° (E) 12:14:41 437.250
HUMSAT D 31 May 12:16:26 12:20:37 84° 288° (WNW) 12:24:51 437.325/437.525
QB50P1 31 May 12:23:02 12:27:16 79° 257° (WSW) 12:31:31 145.935-145.965
POPSAT HIP 1 31 May 12:23:04 12:27:18 81° 259° (WSW) 12:31:32 437.405
Oscar 11 31 May 12:23:30 12:26:42 20° 297° (WNW) 12:29:54 145.826/435.025
QB50P2 31 May 12:26:55 12:31:08 69° 258° (WSW) 12:35:22 145.880/145.840
POLYITAN 1 31 May 12:29:26 12:33:38 67° 259° (WSW) 12:37:51 437.675
Oscar 19 31 May 12:35:55 12:38:54 16° 56° (NE) 12:41:52 437.125/150
AO-85 31 May 12:36:51 12:40:03 17° 25° (NNE) 12:43:06 145.980
GONETS M04 31 May 12:37:10 12:38:15 10° 293° (WNW) 12:39:19
ANTELSAT 31 May 12:38:25 12:40:23 13° 271° (W) 12:42:21 437.575/2403.000
NANOSAT C BR1 31 May 12:39:08 12:43:16 56° 259° (W) 12:47:26 145.865
HO-68 31 May 12:45:28 12:48:53 14° 316° (NW) 12:52:19 435.675
ZACube-1 31 May 12:46:55 12:49:00 14° 300° (WNW) 12:51:06 437.345
DX 1 31 May 12:49:10 12:52:41 23° 94° (E) 12:56:11 434.975-435.025
CUBEBUG 1 31 May 12:50:43 12:54:36 30° 96° (E) 12:58:27 437.445
BEESAT 2 31 May 12:52:55 12:56:49 53° 311° (NW) 13:00:45 435.950
SPROUT 31 May 12:59:00 13:01:35 15° 90° (E) 13:04:08 437.525
ESTCUBE 1 31 May 13:04:45 13:09:17 60° 101° (ESE) 13:13:46 437.505/2401.250
VELOX 1 31 May 13:08:50 13:13:06 44° 99° (E) 13:17:18 145.980
50 SAT 31 May 13:09:32 13:13:12 51° 101° (E) 13:16:50 437.505
JAS-2 31 May 13:13:41 13:21:12 67° 70° (ENE) 13:29:01 435.910
CUSAT 1 31 May 13:14:46 13:21:38 55° 289° (WNW) 13:29:31 437.405
BUGSAT 1 31 May 13:15:55 13:19:58 49° 260° (W) 13:24:01 437.445
DUCHIFAT 1 31 May 13:16:30 13:20:00 25° 266° (W) 13:23:29 145.980
BEESAT 3 31 May 13:20:22 13:23:32 22° 322° (NW) 13:26:43 437.485
UKube-1 31 May 13:29:53 13:34:06 49° 100° (E) 13:38:17 .
Gurwin Techsat 1B 31 May 13:31:47 13:35:41 21° 59° (ENE) 13:39:33 435.225
AO-7 31 May 13:38:09 13:42:20 15° 36° (NE) 13:46:31 29.400- 29.500
PCSat 31 May 13:44:55 13:45:56 10° 345° (NNW) 13:46:57 145.827
AISAT 31 May 13:45:27 13:49:53 76° 285° (WNW) 13:54:15 437.250
DANDE 31 May 13:48:06 13:54:15 57° 288° (WNW) 14:02:00 436.750
Cosmos 2491 31 May 13:54:17 14:00:26 20° 56° (NE) 14:06:32 435.465 / 435.565
HUMSAT D 31 May 13:54:48 13:55:34 10° 302° (WNW) 13:56:21 437.325/437.525
AIST 2 31 May 14:00:02 14:04:04 56° 122° (ESE) 14:08:09 435.215
Oscar 19 31 May 14:12:17 14:17:30 89° 93° (E) 14:22:44 437.125/150
AO-85 31 May 14:16:48 14:21:35 61° 49° (NE) 14:25:55 145.980
DX 1 31 May 14:24:57 14:29:01 38° 292° (WNW) 14:33:02 434.975-435.025
CUBEBUG 1 31 May 14:27:02 14:30:51 30° 294° (WNW) 14:34:39 437.445
SPROUT 31 May 14:33:43 14:37:54 56° 288° (WNW) 14:42:03 437.525
BEESAT 2 31 May 14:33:50 14:35:34 12° 333° (NNW) 14:37:18 435.950
TISAT 1 31 May 14:41:42 14:45:48 50° 100° (E) 14:49:50 437.305
ESTCUBE 1 31 May 14:42:35 14:45:39 18° 299° (WNW) 14:48:43 437.505/2401.250
50 SAT 31 May 14:44:25 14:46:32 15° 298° (WNW) 14:48:39 437.505
BEESAT 31 May 14:45:31 14:47:32 12° 88° (E) 14:49:34 436.000
VELOX 1 31 May 14:45:53 14:49:19 22° 297° (WNW) 14:52:44 145.980
JAS-2 31 May 15:00:07 15:06:42 31° 270° (W) 15:13:32 435.910
CUSAT 1 31 May 15:01:51 15:05:50 15° 312° (NW) 15:09:59 437.405
ITAMSAT 1 31 May 15:03:38 15:08:35 49° 68° (ENE) 15:13:36 435.822/435.867
UKube-1 31 May 15:06:41 15:09:49 20° 298° (WNW) 15:12:57 .
Gurwin Techsat 1B 31 May 15:09:52 15:15:08 67° 258° (WSW) 15:20:27 435.225
AISAT 31 May 15:24:44 15:25:34 10° 305° (NW) 15:26:24 437.250
AO-7 31 May 15:25:19 15:33:10 49° 60° (ENE) 15:41:04 29.400- 29.500
DANDE 31 May 15:35:29 15:39:15 15° 313° (NW) 15:43:21 436.750
AIST 2 31 May 15:39:30 15:42:51 23° 322° (NW) 15:46:14 435.215
Cosmos 2491 31 May 15:50:06 15:58:55 80° 80° (E) 16:07:38 435.465 / 435.565
SWISSCUBE 31 May 15:51:58 15:56:44 57° 101° (E) 16:01:27 437.505
YUBILEINY 31 May 15:53:10 16:00:38 34° 83° (E) 16:08:05 435.215
Oscar 19 31 May 15:55:08 15:57:33 13° 273° (W) 15:59:58 437.125/150
AO-85 31 May 15:58:17 16:01:31 19° 250° (WSW) 16:04:34 145.980
ITUPSAT 1 31 May 16:00:32 16:05:20 61° 102° (ESE) 16:10:06 437.325
TISAT 1 31 May 16:18:15 16:21:06 18° 298° (WNW) 16:23:56 437.305
BEESAT 31 May 16:21:09 16:25:58 85° 286° (WNW) 16:30:46 436.000
RS-15 31 May 16:32:15 16:41:27 30° 102° (ESE) 16:51:00 29.354- 29.394
HORYU 2 31 May 16:33:54 16:37:28 24° 64° (ENE) 16:41:02 437.375
ITAMSAT 1 31 May 16:44:06 16:48:19 25° 267° (W) 16:52:34 435.822/435.867
MOZHAYETS 4 31 May 16:53:16 16:57:05 24° 93° (E) 17:00:52
BRITE-PL 31 May 17:02:30 17:04:19 12° 53° (NE) 17:06:08 437.365/2234.400
NOAA 18 31 May 17:03:33 17:06:00 13° 52° (NE) 17:08:28 137.9125
PCSat 31 May 17:13:12 17:17:36 24° 38° (NE) 17:22:00 145.827
CUTE-I 31 May 17:14:13 17:16:20 12° 52° (NE) 17:18:28 437.470
AO-7 31 May 17:18:09 17:26:00 46° 260° (W) 17:33:57 29.400- 29.500
O/OREOS (USA 219) 31 May 17:29:09 17:30:28 11° 41° (NE) 17:31:46 437.305
SWISSCUBE 31 May 17:30:36 17:34:08 21° 299° (WNW) 17:37:39 437.505
ITUPSAT 1 31 May 17:39:19 17:42:44 20° 300° (WNW) 17:46:09 437.325
KKS-1 31 May 17:41:52 17:46:19 88° 100° (E) 17:50:45 437.445
NOAA 15 31 May 17:45:15 17:49:47 29° 62° (ENE) 17:54:19 137.62
Cosmos 2491 31 May 17:48:08 17:54:45 25° 282° (WNW) 18:01:22 435.465 / 435.565
YUBILEINY 31 May 17:48:21 17:56:55 61° 285° (WNW) 18:05:34 435.215
Cosmos 2504 31 May 17:56:05 18:03:06 52° 90° (E) 18:10:35 435.465 / 435.565
BEESAT 31 May 18:00:48 18:03:01 13° 304° (NW) 18:05:15 436.000
STARS 31 May 18:05:19 18:09:44 81° 106° (ESE) 18:14:05 437.465
Cubesat XI-IV 31 May 18:06:13 18:10:48 31° 63° (ENE) 18:15:25 437.490
HORYU 2 31 May 18:09:41 18:13:50 40° 262° (W) 18:18:01 437.375
BEESAT 3 31 May 18:19:17 18:21:52 16° 33° (NNE) 18:24:27 437.485
MOZHAYETS 4 31 May 18:30:02 18:34:24 41° 291° (WNW) 18:38:45
CUBESAT XI-V 31 May 18:30:37 18:34:45 29° 95° (E) 18:38:50 437.345
LilacSat-2 31 May 18:31:57 18:35:24 35° 70° (ENE) 18:38:52 437.200
BRITE-PL 31 May 18:36:08 18:41:43 59° 71° (ENE) 18:47:14 437.365/2234.400
GOMX 1 31 May 18:38:34 18:43:22 33° 66° (ENE) 18:48:00 467.674
NOAA 18 31 May 18:40:19 18:45:44 70° 71° (ENE) 18:51:10 137.9125
RS-15 31 May 18:40:56 18:52:25 87° 307° (NW) 19:04:37 29.354- 29.394
CUTE-I 31 May 18:50:10 18:55:26 69° 71° (ENE) 19:00:44 437.470
PCSat 31 May 18:56:10 19:01:37 79° 239° (WSW) 19:07:02 145.827
M-CUBED/EXP-1 PRIME 31 May 19:02:05 19:03:25 12° 55° (NE) 19:04:43 437.505
DOVE 4 31 May 19:05:06 19:09:23 28° 66° (ENE) 19:13:30 437.250
O/OREOS (USA 219) 31 May 19:06:22 19:10:51 63° 62° (ENE) 19:15:16 437.305
KKS-1 31 May 19:20:18 19:22:14 13° 303° (WNW) 19:24:10 437.445
CANX-2 31 May 19:22:21 19:24:05 12° 59° (ENE) 19:25:49 2200.000
NOAA 15 31 May 19:24:17 19:29:22 45° 261° (W) 19:34:29 137.62
BEESAT 2 31 May 19:30:33 19:34:13 34° 44° (NE) 19:37:53 435.950
HO-68 31 May 19:40:17 19:46:39 36° 59° (ENE) 19:53:01 435.675
STARS 31 May 19:43:23 19:45:29 13° 302° (WNW) 19:47:33 437.465
Cubesat XI-IV 31 May 19:45:42 19:50:44 43° 262° (W) 19:55:48 437.490
CUTE 1.7 + AOD 2 31 May 19:47:16 19:50:13 19° 63° (ENE) 19:53:11 437.475
Cosmos 2504 31 May 19:50:09 19:56:48 35° 293° (WNW) 20:03:53 435.465 / 435.565
YUBILEINY 31 May 19:51:15 19:55:55 15° 310° (NW) 20:00:38 435.215
COMPASS 1 31 May 19:53:27 19:55:04 12° 59° (ENE) 19:56:42 437.405
BEESAT 3 31 May 19:56:10 20:00:09 89° 62° (ENE) 20:04:05 437.485
STRAND 1 31 May 20:01:43 20:05:37 21° 92° (E) 20:09:29 437.568
LilacSat-2 31 May 20:07:02 20:09:50 20° 267° (W) 20:12:39 437.200
CUBESAT XI-V 31 May 20:07:53 20:12:11 35° 292° (WNW) 20:16:26 437.345
BRITE-PL 31 May 20:15:56 20:20:29 24° 269° (W) 20:25:02 437.365/2234.400
GOMX 1 31 May 20:16:12 20:21:19 40° 263° (W) 20:26:17 467.674
AUBIESAT-1 31 May 20:22:49 20:26:41 63° 68° (ENE) 20:30:19 437.475
NOAA 18 31 May 20:23:12 20:26:56 19° 270° (W) 20:30:40 137.9125
CUTE-I 31 May 20:32:24 20:36:00 18° 270° (W) 20:39:38 437.470
M-CUBED/EXP-1 PRIME 31 May 20:33:33 20:37:34 81° 252° (WSW) 20:41:16 437.505
ZACube-1 31 May 20:35:48 20:36:15 10° 57° (ENE) 20:36:43 437.345
CINEMA 3 31 May 20:38:55 20:43:30 65° 74° (ENE) 20:47:53 145.822/145.860
AIST 2 31 May 20:40:42 20:43:40 19° 34° (NE) 20:46:38 435.215
PCSat 31 May 20:41:53 20:44:07 13° 258° (WSW) 20:46:21 145.827
DOVE 4 31 May 20:42:03 20:46:56 42° 262° (W) 20:51:35 437.250
O/OREOS (USA 219) 31 May 20:47:04 20:49:43 16° 261° (W) 20:52:21 437.305
SEEDS 31 May 20:48:30 20:52:34 55° 72° (ENE) 20:56:42 437.485
ISS 31 May 20:52:47 20:55:34 26° 141° (SE) 20:58:21 145.825
CANX-2 31 May 20:55:06 20:59:19 83° 258° (WSW) 21:03:35 2200.000
RS-15 31 May 20:55:49 21:06:43 41° 337° (NNW) 21:18:05 29.354- 29.394
CUBEBUG 2 31 May 20:57:53 21:01:44 33° 68° (ENE) 21:05:31 437.445
DANDE 31 May 21:01:57 21:03:14 10° 40° (NE) 21:04:31 436.750
FUNcube-1 31 May 21:08:22 21:11:25 20° 64° (ENE) 21:14:27 145.935
BEESAT 2 31 May 21:08:29 21:12:01 30° 243° (WSW) 21:15:31 435.950
UWE-3 31 May 21:16:32 21:20:24 36° 69° (ENE) 21:24:13 435.000/436.395/437.385
DELFI C3 31 May 21:17:22 21:19:30 14° 61° (ENE) 21:21:40 145.870
PRISM 31 May 21:18:47 21:21:49 19° 93° (E) 21:24:49 437.425
CUTE 1.7 + AOD 2 31 May 21:21:38 21:25:43 49° 261° (W) 21:29:52 437.475
AAUSAT CUBESAT 2 31 May 21:23:43 21:27:51 76° 74° (ENE) 21:32:02 437.432
COMPASS 1 31 May 21:25:51 21:30:00 83° 255° (WSW) 21:34:13 437.405
HO-68 31 May 21:27:10 21:34:08 54° 259° (W) 21:41:09 435.675
PHONESAT 2.4 31 May 21:36:08 21:37:49 14° 160° (SSE) 21:39:31 2401.200-2431.200
BEESAT 3 31 May 21:36:32 21:37:10 10° 251° (WSW) 21:37:50 437.485
HUMSAT D 31 May 21:38:05 21:39:33 12° 59° (ENE) 21:41:01 437.325/437.525
STRAND 1 31 May 21:40:06 21:45:09 57° 290° (WNW) 21:50:12 437.568
GONETS M04 31 May 21:43:46 21:51:40 40° 85° (E) 21:59:32
Oscar 11 31 May 21:44:08 21:48:20 53° 71° (ENE) 21:52:32 145.826/435.025
AIST 1 31 May 21:49:08 21:53:32 77° 97° (E) 21:57:57
AUBIESAT-1 31 May 21:59:54 22:01:29 12° 263° (W) 22:03:01 437.475
CUSAT 1 31 May 22:05:19 22:12:13 35° 63° (ENE) 22:18:02 437.405
ZACube-1 31 May 22:07:40 22:11:52 83° 75° (ENE) 22:16:02 437.345
Cosmos 2499 31 May 22:17:15 22:23:49 36° 84° (E) 22:30:50 435.465 / 435.565
CINEMA 3 31 May 22:18:24 22:21:02 15° 270° (W) 22:23:36 145.822/145.860
AIST 2 31 May 22:18:32 22:22:42 83° 233° (SW) 22:26:50 435.215
SEEDS 31 May 22:26:06 22:28:39 16° 270° (W) 22:31:12 437.485
ISS 31 May 22:28:34 22:31:49 65° 339° (NNW) 22:35:04 145.825
ESTCUBE 1 31 May 22:34:00 22:35:28 11° 56° (NE) 22:36:55 437.505/2401.250
CUBEBUG 2 31 May 22:34:50 22:38:25 25° 266° (W) 22:41:57 437.445
DANDE 31 May 22:41:12 22:48:54 38° 64° (ENE) 22:55:51 436.750
FUNcube-1 31 May 22:43:26 22:47:25 43° 262° (W) 22:51:23 145.935
ANTELSAT 31 May 22:49:30 22:50:46 11° 88° (E) 22:52:03 437.575/2403.000
DELFI C3 31 May 22:49:58 22:53:53 62° 258° (WSW) 22:57:53 145.870
PRISM 31 May 22:53:22 22:57:21 44° 290° (WNW) 23:01:17 437.425
UWE-3 31 May 22:53:35 22:56:59 23° 266° (W) 23:00:20 435.000/436.395/437.385
AAUSAT CUBESAT 2 31 May 23:02:40 23:03:53 11° 273° (W) 23:05:06 437.432
SO-50 31 May 23:10:08 23:11:40 11° 107° (ESE) 23:13:12 436.795
HUMSAT D 31 May 23:10:30 23:14:34 82° 257° (WSW) 23:18:40 437.325/437.525
AISAT 31 May 23:10:53 23:13:54 18° 61° (ENE) 23:16:57 437.250
PHONESAT 2.4 31 May 23:11:22 23:13:57 23° 177° (S) 23:16:31 2401.200-2431.200
RS-15 31 May 23:12:32 23:23:19 35° 11° (N) 23:34:19 29.354- 29.394
Oscar 11 31 May 23:22:01 23:24:48 17° 270° (W) 23:27:35 145.826/435.025
AIST 1 31 May 23:29:43 23:31:44 13° 296° (WNW) 23:33:45
GONETS M04 31 May 23:39:42 23:48:14 53° 287° (WNW) 23:56:47
UNISAT 6 31 May 23:42:48 23:46:52 38° 98° (E) 23:50:58 437.425
CUSAT 1 31 May 23:47:24 23:54:46 55° 268° (W) 00:00:45 437.405
DX 1 31 May 23:47:25 23:51:17 31° 66° (ENE) 23:55:10 434.975-435.025
TIGRISAT 31 May 23:48:39 23:52:46 41° 98° (E) 23:56:56 435.000
CUBEBUG 1 31 May 23:49:21 23:53:27 38° 69° (ENE) 23:57:34 437.445
50 SAT 31 May 23:50:39 23:54:02 37° 70° (ENE) 23:57:26 437.505
SPROUT 31 May 23:55:34 23:58:35 19° 62° (ENE) 00:01:36 437.525
ISS 01 Jun 00:05:32 00:08:36 36° 359° (N) 00:11:40 145.825
QB50P1 01 Jun 00:06:14 00:08:18 13° 89° (E) 00:10:21 145.935-145.965
POPSAT HIP 1 01 Jun 00:06:22 00:08:22 13° 89° (E) 00:10:22 437.405
ESTCUBE 1 01 Jun 00:06:59 00:11:30 80° 74° (ENE) 00:16:04 437.505/2401.250
VELOX 1 01 Jun 00:08:48 00:13:11 58° 72° (ENE) 00:17:35 145.980
Cosmos 2499 01 Jun 00:09:24 00:16:37 52° 287° (WNW) 00:24:27 435.465 / 435.565
QB50P2 01 Jun 00:09:53 00:12:25 15° 90° (E) 00:14:56 145.880/145.840
POLYITAN 1 01 Jun 00:12:21 00:14:55 16° 91° (E) 00:17:28 437.675
NANOSAT C BR1 01 Jun 00:21:10 00:24:06 18° 92° (E) 00:27:00 145.865
ANTELSAT 01 Jun 00:23:43 00:28:04 82° 283° (WNW) 00:32:27 437.575/2403.000
DANDE 01 Jun 00:23:59 00:32:14 60° 267° (W) 00:39:26 436.750
UKube-1 01 Jun 00:27:04 00:31:21 62° 73° (ENE) 00:35:40 .
AISAT 01 Jun 00:45:34 00:49:59 59° 259° (W) 00:54:24 437.250
SO-50 01 Jun 00:46:26 00:51:20 75° 125° (SE) 00:56:14 436.795
PHONESAT 2.4 01 Jun 00:47:53 00:50:09 18° 193° (SSW) 00:52:24 2401.200-2431.200
BUGSAT 1 01 Jun 00:55:22 00:58:11 18° 92° (E) 01:00:58 437.445
DUCHIFAT 1 01 Jun 00:56:40 01:00:37 39° 98° (E) 01:04:31 145.980
UNISAT 6 01 Jun 01:19:57 01:23:26 24° 295° (WNW) 01:26:56 437.425
DX 1 01 Jun 01:23:35 01:27:27 30° 264° (W) 01:31:20 434.975-435.025
50 SAT 01 Jun 01:25:25 01:27:54 17° 267° (W) 01:30:26 437.505
TIGRISAT 01 Jun 01:25:54 01:29:15 22° 296° (WNW) 01:32:38 435.000
CUBEBUG 1 01 Jun 01:26:12 01:29:51 25° 266° (W) 01:33:31 437.445
SWISSCUBE 01 Jun 01:26:31 01:28:59 14° 56° (ENE) 01:31:26 437.505
RS-15 01 Jun 01:26:42 01:38:52 62° 42° (NE) 01:51:05 29.354- 29.394
SPROUT 01 Jun 01:30:02 01:34:12 50° 260° (W) 01:38:24 437.525
CUSAT 1 01 Jun 01:34:17 01:34:50 10° 290° (WNW) 01:35:23 437.405
ITUPSAT 1 01 Jun 01:35:05 01:37:46 15° 57° (ENE) 01:40:28 437.325
TISAT 1 01 Jun 01:36:02 01:40:10 57° 72° (ENE) 01:44:18 437.305
QB50P1 01 Jun 01:40:21 01:44:31 65° 287° (WNW) 01:48:41 145.935-145.965
POPSAT HIP 1 01 Jun 01:40:26 01:44:36 66° 287° (WNW) 01:48:46 437.405
ISS 01 Jun 01:42:09 01:45:24 60° 19° (NNE) 01:48:38 145.825
GONETS M04 01 Jun 01:43:50 01:47:35 13° 313° (NW) 01:51:21
QB50P2 01 Jun 01:44:27 01:48:36 56° 288° (WNW) 01:52:42 145.880/145.840
POLYITAN 1 01 Jun 01:46:57 01:51:04 55° 288° (WNW) 01:55:10 437.675
ESTCUBE 1 01 Jun 01:47:01 01:48:54 12° 273° (W) 01:50:47 437.505/2401.250
VELOX 1 01 Jun 01:47:10 01:50:01 17° 269° (W) 01:52:53 145.980
BEESAT 01 Jun 01:54:14 01:57:50 22° 61° (ENE) 02:01:28 436.000
NANOSAT C BR1 01 Jun 01:56:04 02:00:05 46° 289° (WNW) 02:04:06 145.865
YUBILEINY 01 Jun 01:58:32 02:04:45 21° 56° (NE) 02:10:56 435.215
ANTELSAT 01 Jun 02:03:02 02:04:04 11° 303° (WNW) 02:05:06 437.575/2403.000
UKube-1 01 Jun 02:05:22 02:07:49 15° 270° (W) 02:10:18 .
